Location: Unspecified
(43.3830°N, 0.0000°E)
Time: 14:00:38
(UTC+00:00)

Explorer 7 - Pass Details

Date: 04 July 2019
Orbit: 485 x 680 km, 50.3° (Epoch: 23 July)

Event Time Altitude Azimuth Distance (km) Brightness Sun altitude
Rises 08:00:16 0° 295° (WNW) 2,722 9.9 36.3°
Reaches altitude 10° 08:02:35 10° 303° (WNW) 1,861 9.2 36.7°
Maximum altitude 08:06:33 37° 12° (NNE) 927 8.4 37.4°
Drops below altitude 10° 08:10:46 10° 80° (E) 1,976 10.9 38.2°
Sets 08:13:17 0° 89° (E) 2,915 11.4 38.6°
